1508904001.07,32085,9.31,74062.0,-2.41,-28.21,-28.15,0,*5C
1508904002.33,32086,9.25,74056.8,-2.43,-28.43,-28.43,0,*5A
1508904003.57,32087,9.31,74054.8,-2.43,-28.37,-28.21,0,*5C
1508904004.84,32088,9.31,74050.3,-2.43,-28.25,-28.25,0,*54
1508904006.07,32089,9.25,74044.8,-2.43,-28.21,-27.93,0,*53
1508904007.34,32090,9.25,74048.8,-2.43,-28.25,-28.21,0,*59
1508904008.61,32091,9.25,74048.5,-2.43,-28.21,-28.05,0,*5A
1508904009.82,32092,9.25,74044.3,-2.43,-27.93,-27.93,0,*5F
1508904011.06,32093,9.25,74048.3,-2.43,-27.51,-27.61,0,*5D
1508904012.27,32094,9.25,74050.0,-2.43,-27.55,-27.55,0,*59
1508904013.48,32095,9.31,74052.0,-2.43,-27.71,-27.71,0,*58
1508904014.71,32096,9.25,74050.8,-2.41,-27.67,-27.71,0,*5E
1508904015.95,32097,9.25,74050.0,-2.41,-27.71,-27.71,0,*58
1508904017.18,32098,9.25,74048.3,-2.41,-27.71,-27.71,0,*57
1508904018.39,32099,9.25,74048.5,-2.39,-27.51,-27.55,0,*5D
1508904019.65,32100,9.25,74048.3,-2.41,-27.89,-27.99,0,*56
1508904020.89,32101,9.25,74046.8,-2.39,-27.99,-27.89,0,*58
1508904022.16,32102,9.25,74044.3,-2.39,-27.99,-27.99,0,*5A
1508904023.43,32103,9.31,74044.3,-2.39,-28.05,-28.05,0,*5B
1508904024.72,32104,9.25,74048.3,-2.41,-27.99,-27.99,0,*53
1508904025.98,32105,9.25,74052.3,-2.41,-28.21,-28.15,0,*55
1508904027.19,32106,9.25,74052.3,-2.39,-27.55,-27.55,0,*5E
1508904028.43,32107,9.25,74052.5,-2.41,-27.71,-27.67,0,*57
1508904029.67,32108,9.25,74044.3,-2.39,-27.99,-27.89,0,*51
1508904030.91,32109,9.31,74040.5,-2.39,-27.99,-27.89,0,*50
1508904032.15,32110,9.25,74032.0,-2.39,-27.89,-27.83,0,*53
1508904033.41,32111,9.25,74032.5,-2.41,-28.15,-27.99,0,*5C
1508904034.64,32112,9.31,74040.3,-2.41,-27.71,-27.71,0,*54
1508904035.87,32113,9.31,74034.8,-2.39,-27.51,-27.45,0,*5F
1508904037.11,32114,9.25,74036.5,-2.41,-27.55,-27.51,0,*56
1508904038.33,32115,9.25,74042.5,-2.39,-27.67,-27.67,0,*5C
1508904039.57,32116,9.31,74044.8,-2.39,-27.99,-27.89,0,*5E
1508904040.83,32117,9.25,74044.3,-2.39,-27.45,-27.45,0,*5E
1508904042.09,32118,9.25,74054.3,-2.39,-27.99,-27.83,0,*5A
1508904043.33,32119,9.31,74058.8,-2.35,-27.71,-27.61,0,*5D
1508904044.61,32120,9.25,74060.0,-2.37,-27.99,-27.83,0,*5F
1508904045.85,32121,9.31,74056.0,-2.39,-27.99,-27.89,0,*5A
1508904047.09,32122,9.25,74050.5,-2.39,-27.99,-27.89,0,*59
1508904048.31,32123,9.25,74050.5,-2.39,-28.15,-27.89,0,*53
1508904049.57,32124,9.25,74050.0,-2.39,-27.99,-27.99,0,*5E
1508904050.79,32125,9.25,74048.0,-2.39,-27.71,-27.67,0,*58
1508904052.04,32126,9.25,74050.0,-2.37,-27.83,-27.77,0,*59
1508904053.3,32127,9.25,74054.0,-2.37,-27.83,-27.77,0,*58
1508904054.56,32128,9.25,74050.0,-2.39,-27.99,-27.83,0,*59
1508904055.8,32129,9.25,74050.5,-2.37,-27.77,-27.77,0,*5D
1508904057.06,32130,9.25,74054.8,-2.37,-28.09,-27.93,0,*59
1508904058.33,32131,9.25,74048.3,-2.39,-28.09,-28.05,0,*56
1508904059.57,32132,9.25,74054.0,-2.39,-28.15,-28.05,0,*58
1508904060.8,32133,9.25,74052.0,-2.41,-27.89,-27.89,0,*57
1508904062.04,32134,9.25,74052.8,-2.39,-27.89,-27.83,0,*55
1508904063.3,32135,9.25,74048.5,-2.39,-27.99,-27.83,0,*55
1508904064.51,32136,9.25,74042.5,-2.39,-27.71,-27.71,0,*5D
1508904065.75,32137,9.25,74042.0,-2.39,-27.99,-27.89,0,*5D
1508904067.02,32138,9.25,74040.0,-2.41,-28.31,-28.21,0,*5D
1508904068.25,32139,9.25,74042.0,-2.41,-28.31,-28.15,0,*5B
1508904069.47,32140,9.25,74042.5,-2.39,-28.31,-28.31,0,*5C
1508904070.69,32141,9.25,74050.8,-2.39,-28.37,-28.37,0,*5D
1508904071.96,32142,9.31,74058.5,-2.41,-28.21,-28.15,0,*56
1508904073.22,32143,9.25,74054.0,-2.41,-28.15,-27.99,0,*5B
1508904074.49,32144,9.25,74052.0,-2.39,-28.05,-28.05,0,*58
1508904075.75,32145,9.25,74048.5,-2.41,-28.05,-27.89,0,*5D
1508904077.01,32146,9.25,74044.0,-2.41,-27.51,-27.35,0,*57
1508904078.24,32147,9.25,74042.8,-2.41,-27.55,-27.51,0,*50
1508904079.5,32148,9.25,74038.5,-2.41,-27.51,-27.45,0,*5E
1508904080.72,32149,9.25,74038.0,-2.39,-27.67,-27.67,0,*55
1508904081.95,32150,9.25,74040.0,-2.39,-27.83,-27.71,0,*50
1508904083.24,32151,9.25,74044.8,-2.41,-27.45,-27.35,0,*54
1508904084.49,32152,9.25,74048.3,-2.39,-27.45,-27.29,0,*55
1508904085.72,32153,9.25,74048.3,-2.39,-27.83,-27.67,0,*54
1508904086.96,32154,9.25,74048.3,-2.41,-27.71,-27.67,0,*51
1508904088.17,32155,9.31,74050.0,-2.39,-27.71,-27.71,0,*58
1508904089.44,32156,9.25,74042.5,-2.37,-27.77,-27.61,0,*52
1508904090.68,32157,9.25,74044.0,-2.37,-27.77,-27.67,0,*55
1508904091.91,32158,9.25,74046.3,-2.39,-27.51,-27.45,0,*50
1508904093.15,32159,9.25,74048.8,-2.41,-27.55,-27.51,0,*5F
1508904094.38,32160,9.25,74048.0,-2.37,-27.77,-27.77,0,*50
1508904095.62,32161,9.25,74048.5,-2.37,-27.77,-27.67,0,*50
1508904096.88,32162,9.25,74048.8,-2.37,-28.09,-27.93,0,*5E
1508904098.12,32163,9.25,74044.8,-2.37,-28.15,-27.93,0,*52
1508904099.36,32164,9.25,74044.8,-2.37,-27.77,-27.67,0,*55
1508904100.6,32165,9.25,74038.3,-2.37,-27.67,-27.77,0,*54
1508904101.88,32166,9.25,74038.3,-2.37,-28.09,-27.83,0,*5B
1508904103.14,32167,9.25,74040.3,-2.37,-27.99,-27.93,0,*5D
1508904104.38,32168,9.25,74042.5,-2.37,-27.93,-27.77,0,*52
1508904105.64,32169,9.25,74050.0,-2.35,-27.35,-27.35,0,*5B
1508904106.91,32170,9.25,74050.5,-2.37,-27.45,-27.29,0,*5B
1508904108.16,32171,9.25,74046.8,-2.37,-27.51,-27.45,0,*55
1508904109.42,32172,9.25,74042.8,-2.37,-27.51,-27.39,0,*5D
1508904110.67,32173,9.25,74032.3,-2.37,-27.51,-27.29,0,*5D
1508904111.95,32174,9.25,74028.3,-2.37,-27.39,-27.23,0,*5E
1508904113.21,32175,9.25,74034.3,-2.37,-27.51,-27.45,0,*51
1508904114.5,32176,9.25,74036.3,-2.37,-27.61,-27.45,0,*51
1508904115.71,32177,9.25,74034.5,-2.35,-27.93,-27.71,0,*58
1508904116.95,32178,9.25,74032.0,-2.35,-27.77,-27.61,0,*5C
1508904118.21,32179,9.31,74034.8,-2.37,-27.83,-27.67,0,*52
1508904119.5,32180,9.25,74026.8,-2.33,-27.45,-27.35,0,*5D
1508904120.76,32181,9.25,74024.5,-2.35,-27.61,-27.45,0,*5B
1508904122.03,32182,9.25,74026.8,-2.35,-27.45,-27.35,0,*59
1508904123.32,32183,9.25,74038.8,-2.37,-27.61,-27.45,0,*5B
1508904124.58,32184,9.25,74036.5,-2.33,-27.55,-27.39,0,*54
1508904125.82,32185,9.25,74036.3,-2.31,-27.55,-27.35,0,*5B
1508904127.05,32186,9.25,74040.0,-2.35,-27.89,-27.61,0,*5C
1508904128.32,32187,9.25,74038.3,-2.35,-27.45,-27.39,0,*50
1508904129.53,32188,9.25,74040.3,-2.35,-27.71,-27.55,0,*52
1508904130.74,32189,9.25,74038.3,-2.35,-27.89,-27.71,0,*52
1508904131.95,32190,9.25,74042.0,-2.35,-27.93,-27.71,0,*51
1508904133.15,32191,9.25,74044.8,-2.35,-27.89,-27.71,0,*5B
1508904134.39,32192,9.25,74046.3,-2.35,-27.71,-27.45,0,*58
1508904135.59,32193,9.25,74050.0,-2.35,-27.89,-27.71,0,*59
1508904136.8,32194,9.25,74048.8,-2.35,-27.89,-27.71,0,*5E
1508904138.04,32195,9.25,74046.3,-2.35,-27.93,-27.61,0,*55
1508904139.27,32196,9.25,74046.0,-2.35,-27.71,-27.45,0,*5C
1508904140.51,32197,9.25,74016.5,-2.35,-27.89,-27.61,0,*5C
1508904141.74,32198,9.25,74012.3,-2.35,-27.89,-27.61,0,*53
1508904142.98,32199,9.25,74028.5,-2.35,-27.23,-27.03,0,*56
1508904144.22,32200,9.25,74042.8,-2.35,-26.93,-26.61,0,*5A
1508904145.48,32201,9.25,74054.0,-2.33,-27.35,-27.07,0,*51
1508904146.77,32202,9.25,74050.3,-2.33,-27.61,-27.35,0,*52
1508904148.01,32203,9.25,74044.0,-2.31,-27.83,-27.51,0,*5F
1508904149.24,32204,9.25,74040.5,-2.31,-27.39,-27.13,0,*5F
1508904150.46,32205,9.25,74042.5,-2.31,-27.71,-27.51,0,*54
1508904151.69,32206,9.25,74050.8,-2.33,-27.93,-27.71,0,*5B
1508904152.94,32207,9.25,74046.8,-2.31,-27.29,-26.97,0,*50
1508904154.2,32208,9.25,74040.5,-2.33,-27.23,-26.87,0,*56
1508904155.48,32209,9.25,74042.5,-2.33,-27.45,-27.19,0,*51
1508904156.72,32210,9.25,74036.8,-2.31,-27.83,-27.51,0,*5D
1508904157.96,32211,9.25,74040.5,-2.31,-28.09,-27.67,0,*54
1508904159.25,32212,9.25,74046.0,-2.33,-28.05,-27.61,0,*5F
1508904160.49,32213,9.25,74040.5,-2.33,-27.77,-27.55,0,*53
1508904161.73,32214,9.25,74036.3,-2.31,-27.55,-27.19,0,*5E
1508904162.99,32215,9.25,74032.3,-2.31,-26.97,-26.55,0,*59
1508904164.25,32216,9.25,74032.8,-2.33,-27.71,-27.39,0,*5A
1508904165.49,32217,9.25,74036.5,-2.33,-27.89,-27.55,0,*56
1508904166.73,32218,9.25,74034.5,-2.31,-27.89,-27.61,0,*5C
1508904167.99,32219,9.25,74032.5,-2.33,-28.09,-27.71,0,*59
1508904169.25,32220,9.25,74042.0,-2.31,-27.83,-27.39,0,*50
1508904170.48,32221,9.25,74038.8,-2.31,-27.83,-27.55,0,*5B
1508904171.72,32222,9.25,74044.5,-2.31,-27.99,-27.67,0,*52
1508904172.93,32223,9.25,74044.3,-2.31,-27.71,-27.55,0,*54
1508904174.2,32224,9.25,74038.8,-2.33,-28.05,-27.55,0,*5D
1508904175.45,32225,9.25,74032.3,-2.33,-27.89,-27.45,0,*56
1508904176.69,32226,9.25,74032.3,-2.33,-27.93,-27.55,0,*5F
1508904177.95,32227,9.25,74032.3,-2.33,-28.21,-27.71,0,*5E
1508904179.19,32228,9.25,74030.5,-2.31,-27.89,-27.39,0,*52
1508904180.41,32229,9.25,74026.0,-2.31,-28.15,-27.67,0,*52
1508904181.67,32230,9.25,74022.3,-2.33,-28.25,-27.89,0,*5B
1508904182.91,32231,9.25,74024.0,-2.33,-28.37,-27.93,0,*52
1508904184.17,32232,9.25,74032.5,-2.33,-28.25,-27.77,0,*58
1508904185.46,32233,9.25,74028.5,-2.33,-28.05,-27.39,0,*51
1508904186.7,32234,9.25,74020.3,-2.33,-27.55,-27.03,0,*55
1508904187.92,32235,9.25,74018.3,-2.31,-27.71,-27.29,0,*58
1508904189.19,32236,9.25,74030.0,-2.33,-27.77,-27.35,0,*52
1508904190.42,32237,9.25,74038.0,-2.31,-27.99,-27.51,0,*53
1508904191.69,32238,9.25,74046.3,-2.33,-27.77,-27.35,0,*5C
1508904192.9,32239,9.25,74054.0,-2.31,-27.51,-27.03,0,*5E
1508904194.16,32240,9.31,74056.3,-2.33,-27.23,-26.61,0,*52
1508904195.41,32241,9.25,74048.5,-2.31,-26.13,-25.65,0,*54
1508904196.61,32242,9.25,74044.3,-2.27,-25.35,-24.97,0,*5B
1508904197.82,32243,9.25,74040.8,-2.27,-24.97,-24.77,0,*5D
1508904199.1,32244,9.25,74040.3,-2.21,-25.75,-25.29,0,*5B
1508904200.36,32245,9.25,74040.5,-2.21,-25.87,-25.45,0,*5D
1508904201.61,32246,9.25,74036.5,-2.19,-26.03,-25.55,0,*5B
1508904202.87,32247,9.25,74038.0,-2.17,-26.03,-25.71,0,*52
1508904204.14,32248,9.25,74036.8,-2.17,-26.03,-25.55,0,*5B
1508904205.43,32249,9.25,74038.0,-2.17,-26.81,-26.33,0,*53
1508904206.69,32250,9.25,74034.3,-2.15,-27.23,-26.71,0,*56
1508904207.9,32251,9.25,74030.3,-2.15,-27.67,-27.03,0,*53
1508904209.14,32252,9.25,74022.3,-2.15,-27.71,-27.23,0,*55
1508904210.39,32253,9.25,74020.8,-2.15,-27.83,-27.23,0,*59
1508904211.67,32254,9.25,74032.0,-2.17,-27.99,-27.39,0,*5C
1508904212.93,32255,9.25,74042.8,-2.17,-27.51,-26.97,0,*5C
1508904214.19,32256,9.25,74036.3,-2.17,-27.67,-26.97,0,*5A
1508904215.42,32257,9.25,74028.5,-2.17,-27.67,-27.03,0,*57
1508904216.68,32258,9.25,74024.8,-2.17,-27.71,-26.97,0,*53
1508904217.96,32259,9.25,74032.5,-2.17,-27.99,-27.35,0,*5D
1508904219.22,32260,9.25,74038.5,-2.17,-28.05,-27.51,0,*5F
1508904220.45,32261,9.25,74036.8,-2.17,-27.67,-26.87,0,*5F
1508904221.7,32262,9.25,74030.0,-2.17,-27.83,-27.13,0,*5A
1508904222.96,32263,9.25,74022.5,-2.15,-27.99,-27.35,0,*56
1508904224.19,32264,9.25,74020.5,-2.17,-28.15,-27.51,0,*5A
1508904225.45,32265,9.25,74010.8,-2.17,-27.89,-27.23,0,*54
1508904226.7,32266,9.25,74026.5,-2.17,-27.39,-26.65,0,*5F
1508904227.95,32267,9.25,74032.0,-2.19,-27.39,-26.71,0,*55
1508904229.19,32268,9.25,74034.8,-2.15,-27.71,-26.97,0,*52
1508904230.42,32269,9.25,74038.8,-2.15,-27.83,-27.03,0,*52
1508904231.66,32270,9.25,74044.0,-2.15,-27.67,-26.97,0,*5C
1508904232.87,32271,9.25,74038.8,-2.15,-27.89,-27.03,0,*51
1508904234.11,32272,9.25,74034.3,-2.17,-27.67,-26.87,0,*5D
1508904235.34,32273,9.25,74034.3,-2.15,-27.83,-27.03,0,*59
1508904236.6,32274,9.25,74038.8,-2.15,-27.99,-27.23,0,*57
1508904237.86,32275,9.25,74030.5,-2.15,-28.05,-27.23,0,*5C
1508904239.12,32276,9.25,74026.0,-2.15,-28.05,-27.19,0,*56
1508904240.38,32277,9.25,74030.0,-2.15,-27.99,-27.23,0,*54
1508904241.65,32278,9.25,74034.3,-2.15,-28.05,-27.19,0,*58
1508904242.91,32279,9.25,74034.8,-2.15,-28.21,-27.35,0,*51
1508904244.17,32280,9.25,74034.8,-2.17,-28.15,-27.35,0,*52
1508904245.42,32281,9.25,74034.3,-2.17,-27.89,-26.97,0,*50
1508904246.68,32282,9.25,74034.5,-2.17,-28.15,-27.23,0,*57
1508904247.93,32283,9.25,74034.8,-2.17,-28.15,-27.35,0,*51
1508904249.22,32284,9.25,74046.3,-2.17,-28.05,-27.23,0,*50
1508904250.48,32285,9.25,74040.5,-2.17,-27.67,-26.81,0,*53
1508904251.73,32286,9.25,74032.5,-2.17,-27.35,-26.39,0,*54
1508904252.99,32287,9.25,74034.0,-2.17,-27.67,-26.81,0,*51
1508904254.22,32288,9.25,74030.0,-2.17,-27.89,-26.87,0,*58
1508904255.47,32289,9.25,74024.0,-2.17,-28.05,-27.13,0,*5E
1508904256.73,32290,9.25,74024.8,-2.17,-28.15,-27.19,0,*5D
1508904257.98,32291,9.25,74024.8,-2.17,-27.89,-26.81,0,*56
1508904259.26,32292,9.25,74024.5,-2.17,-27.99,-26.97,0,*53
1508904260.5,32293,9.25,74032.8,-2.17,-27.67,-26.65,0,*5E
1508904261.75,32294,9.25,74040.0,-2.17,-27.67,-26.71,0,*5C
1508904263.03,32295,9.25,74038.5,-2.17,-27.99,-26.97,0,*54
1508904264.29,32296,9.25,74036.0,-2.17,-27.51,-26.55,0,*5D
1508904265.49,32297,9.25,74024.5,-2.15,-27.55,-26.65,0,*59
1508904266.75,32298,9.25,74040.8,-2.13,-27.77,-26.81,0,*5A
1508904267.98,32299,9.25,74034.8,-2.15,-27.71,-26.71,0,*54
1508904269.19,32300,9.25,74032.3,-2.15,-27.71,-26.65,0,*50
1508904270.4,32301,9.25,74028.5,-2.15,-27.71,-26.65,0,*51
1508904271.61,32302,9.25,74030.5,-2.15,-28.15,-27.13,0,*5F
1508904272.84,32303,9.25,74030.5,-2.15,-27.99,-26.87,0,*59
1508904274.08,32304,9.25,74030.5,-2.15,-27.35,-26.39,0,*5D
1508904275.33,32305,9.25,74024.5,-2.15,-27.83,-26.71,0,*5D
1508904276.59,32306,9.25,74030.5,-2.15,-27.83,-26.81,0,*51
1508904277.82,32307,9.25,74030.5,-2.13,-27.77,-26.65,0,*57
1508904279.05,32308,9.25,74032.0,-2.15,-27.99,-26.87,0,*52
1508904280.29,32309,9.25,74028.5,-2.15,-27.99,-26.87,0,*53
1508904281.52,32310,9.25,74034.8,-2.15,-27.99,-26.87,0,*5B
1508904282.76,32311,9.25,74034.0,-2.15,-28.05,-27.03,0,*5D
1508904284.0,32312,9.25,74032.8,-2.15,-28.21,-27.13,0,*59
1508904285.26,32313,9.25,74036.8,-2.17,-28.05,-26.87,0,*50
1508904286.49,32314,9.25,74034.8,-2.17,-28.15,-27.03,0,*5B
1508904287.78,32315,9.25,74032.8,-2.17,-28.05,-26.97,0,*57
1508904289.06,32316,9.25,74034.8,-2.17,-28.05,-26.97,0,*54
1508904290.34,32317,9.25,74036.3,-2.17,-27.99,-26.81,0,*58
1508904291.57,32318,9.25,74036.3,-2.17,-27.67,-26.49,0,*52
1508904292.81,32319,9.25,74028.8,-2.19,-27.61,-26.45,0,*57
1508904294.09,32320,9.25,74030.0,-2.17,-27.99,-26.97,0,*5B
1508904295.32,32321,9.25,74028.5,-2.17,-28.15,-27.03,0,*5D
1508904296.55,32322,9.25,74034.8,-2.17,-28.15,-26.87,0,*53
1508904297.8,32323,9.25,74034.3,-2.17,-27.99,-26.87,0,*59
1508904299.06,32324,9.25,74038.0,-2.17,-28.15,-26.97,0,*54
1508904300.31,32325,9.25,74038.5,-2.17,-28.05,-26.87,0,*55
1508904301.56,32326,9.25,74034.3,-2.17,-27.89,-26.71,0,*54
1508904302.85,32327,9.25,74038.0,-2.17,-28.05,-26.97,0,*56
1508904304.1,32328,9.25,74036.5,-2.17,-27.89,-26.55,0,*5C
1508904305.38,32329,9.25,74038.5,-2.17,-27.99,-26.81,0,*55
1508904306.61,32330,9.25,74032.8,-2.17,-28.15,-26.87,0,*50
1508904307.87,32331,9.25,74034.5,-2.17,-28.21,-27.13,0,*5A
1508904309.12,32332,9.25,74038.5,-2.17,-27.99,-26.87,0,*59
1508904310.36,32333,9.25,74034.3,-2.19,-28.21,-27.03,0,*57
1508904311.58,32334,9.25,74034.5,-2.19,-28.31,-27.19,0,*5A
1508904312.84,32335,9.25,74032.8,-2.19,-28.21,-26.93,0,*59
1508904314.1,32336,9.25,74036.3,-2.17,-28.05,-26.87,0,*57
1508904315.33,32337,9.25,74042.3,-2.19,-28.25,-27.03,0,*57
1508904316.57,32338,9.25,74046.3,-2.19,-28.21,-27.03,0,*5C
1508904317.83,32339,9.25,74038.0,-2.17,-28.05,-26.87,0,*58
1508904319.06,32340,9.25,74046.8,-2.19,-28.25,-27.03,0,*57
1508904320.32,32341,9.25,74044.5,-2.19,-28.09,-26.93,0,*50
1508904321.55,32342,9.25,74044.0,-2.19,-28.21,-27.07,0,*55
1508904322.8,32343,9.25,74050.3,-2.19,-28.43,-27.19,0,*5F
1508904324.03,32344,9.25,74040.5,-2.19,-27.77,-26.55,0,*59
1508904325.28,32345,9.25,74036.5,-2.17,-27.89,-26.55,0,*57
1508904326.56,32346,9.25,74032.5,-2.17,-27.99,-26.93,0,*5F
1508904327.81,32347,9.25,74040.3,-2.19,-28.09,-26.77,0,*5C
1508904329.07,32348,9.25,74044.5,-2.19,-28.25,-26.93,0,*57
1508904330.27,32349,9.25,74034.0,-2.19,-27.77,-26.45,0,*55
1508904331.47,32350,9.25,74038.5,-2.19,-27.77,-26.45,0,*5D
1508904332.7,32351,9.25,74040.3,-2.17,-27.67,-26.23,0,*53
1508904333.94,32352,9.25,74030.8,-2.19,-28.05,-26.61,0,*53
1508904335.19,32353,9.25,74034.0,-2.19,-28.09,-26.71,0,*5F
1508904336.44,32354,9.25,74038.0,-2.19,-28.21,-26.71,0,*52
1508904337.67,32355,9.25,74038.0,-2.19,-27.83,-26.39,0,*58
1508904338.95,32356,9.25,74030.5,-2.17,-27.99,-26.55,0,*54
1508904340.18,32357,9.25,74038.5,-2.19,-28.21,-26.61,0,*50
1508904341.41,32358,9.25,74038.0,-2.19,-27.93,-26.55,0,*5E
1508904342.66,32359,9.25,74036.8,-2.19,-28.05,-26.55,0,*5F
1508904343.91,32360,9.25,74038.3,-2.17,-27.99,-26.49,0,*5C
1508904345.17,32361,9.25,74036.5,-2.17,-27.35,-25.87,0,*5A
1508904346.42,32362,9.25,74038.8,-2.17,-27.35,-26.07,0,*52
1508904347.67,32363,9.25,74036.3,-2.17,-27.35,-25.87,0,*58
1508904348.93,32364,9.25,74032.0,-2.17,-26.97,-25.39,0,*53
1508904350.19,32365,9.25,74034.5,-2.17,-26.33,-24.97,0,*59
1508904351.4,32366,9.25,74038.8,-2.15,-27.13,-25.65,0,*57
1508904352.64,32367,9.25,74036.3,-2.13,-27.13,-25.65,0,*50
1508904353.88,32368,9.25,74036.5,-2.13,-27.07,-25.61,0,*5E
1508904355.12,32369,9.25,74042.5,-2.15,-27.13,-25.71,0,*5D
1508904356.36,32370,9.25,74038.8,-2.15,-27.35,-26.03,0,*57
1508904357.62,32371,9.25,74040.0,-2.13,-27.77,-26.29,0,*5E
1508904358.83,32372,9.25,74038.5,-2.15,-27.51,-26.03,0,*57
1508904360.12,32373,9.25,74034.0,-2.13,-27.61,-26.17,0,*56
1508904361.4,32374,9.25,74040.0,-2.13,-27.83,-26.33,0,*5B
1508904362.63,32375,9.25,74042.3,-2.13,-27.93,-26.45,0,*5A
1508904363.88,32376,9.25,74038.5,-2.13,-27.77,-26.17,0,*54
1508904365.16,32377,9.25,74040.3,-2.15,-26.97,-25.55,0,*59
1508904366.42,32378,9.25,74032.0,-2.13,-27.45,-26.03,0,*5E
1508904367.68,32379,9.25,74028.0,-2.13,-27.45,-26.03,0,*5F
1508904368.94,32380,9.25,74026.0,-2.13,-27.93,-26.33,0,*51
1508904370.17,32381,9.25,74024.8,-2.13,-27.93,-26.49,0,*5D
1508904371.42,32382,9.25,74036.5,-2.13,-27.99,-26.45,0,*58
1508904372.66,32383,9.25,74038.8,-2.15,-28.05,-26.49,0,*59
1508904373.87,32384,9.25,74042.8,-2.15,-28.15,-26.39,0,*58
1508904375.15,32385,9.25,74040.0,-2.13,-27.83,-26.33,0,*55
1508904376.39,32386,9.25,74040.8,-2.15,-27.99,-26.39,0,*51
1508904377.63,32387,9.25,74036.3,-2.15,-27.99,-26.39,0,*50
1508904378.86,32388,9.25,74040.0,-2.15,-28.05,-26.49,0,*52
1508904380.15,32389,9.25,74044.5,-2.13,-27.99,-26.33,0,*52
1508904381.39,32390,9.25,74040.3,-2.15,-28.05,-26.39,0,*5C
1508904382.62,32391,9.25,74042.3,-2.15,-28.05,-26.49,0,*5A
1508904383.86,32392,9.25,74040.5,-2.15,-27.99,-26.39,0,*54
1508904385.12,32393,9.25,74038.0,-2.17,-27.99,-26.39,0,*57
1508904386.33,32394,9.25,74038.0,-2.15,-27.89,-26.23,0,*58
1508904387.56,32395,9.25,74036.8,-2.15,-27.99,-26.39,0,*53
1508904388.81,32396,9.25,74036.0,-2.15,-28.05,-26.39,0,*5A
1508904390.08,32397,9.25,74042.0,-2.17,-27.83,-26.17,0,*54
1508904391.31,32398,9.25,74038.3,-2.17,-27.55,-26.07,0,*51
1508904392.58,32399,9.25,74040.0,-2.17,-27.67,-25.97,0,*5B
1508904393.85,32400,9.25,74038.8,-2.17,-27.83,-26.17,0,*5D
1508904395.09,32401,9.25,74042.3,-2.19,-27.61,-26.07,0,*5F
1508904396.34,32402,9.25,74038.0,-2.17,-27.39,-25.87,0,*54
1508904397.63,32403,9.25,74038.5,-2.17,-27.35,-25.71,0,*50
1508904398.89,32404,9.25,74036.5,-2.17,-26.97,-25.39,0,*52
1508904400.13,32405,9.25,74042.3,-2.17,-27.13,-25.49,0,*59
1508904401.33,32406,9.25,74038.8,-2.15,-26.87,-25.23,0,*58
1508904402.59,32407,9.25,74032.5,-2.13,-27.19,-25.65,0,*5B
1508904403.87,32408,9.25,74036.0,-2.13,-27.35,-25.75,0,*5B
1508904405.11,32409,9.25,74046.8,-2.15,-27.67,-25.97,0,*57
1508904406.37,32410,9.25,74042.0,-2.13,-27.77,-25.97,0,*58
1508904407.6,32411,9.25,74046.3,-2.13,-27.67,-25.91,0,*5E
1508904408.81,32412,9.25,74046.8,-2.15,-27.71,-26.07,0,*50
1508904410.07,32413,9.25,74042.8,-2.15,-27.83,-26.17,0,*5D
1508904411.31,32414,9.25,74042.0,-2.15,-27.67,-25.97,0,*5B
1508904412.55,32415,9.25,74046.5,-2.15,-27.51,-25.81,0,*58
1508904413.76,32416,9.25,74044.3,-2.15,-27.71,-26.03,0,*50
1508904414.97,32417,9.25,74044.3,-2.15,-27.71,-26.07,0,*55
1508904416.21,32418,9.25,74046.3,-2.13,-27.77,-26.03,0,*5E
1508904417.46,32419,9.25,74044.3,-2.17,-27.19,-25.65,0,*50
1508904418.75,32420,9.25,74040.0,-2.17,-27.23,-25.55,0,*50
1508904420.01,32421,9.25,74046.0,-2.15,-27.35,-25.71,0,*52
1508904421.24,32422,9.25,74046.3,-2.15,-27.83,-25.87,0,*55
1508904422.47,32423,9.25,74040.5,-2.17,-27.55,-25.87,0,*5D
1508904423.75,32424,9.25,74040.0,-2.17,-27.39,-25.81,0,*56
1508904425.03,32425,9.25,74042.3,-2.17,-27.39,-25.81,0,*57
1508904426.28,32426,9.25,74044.5,-2.17,-27.35,-25.65,0,*52
1508904427.54,32427,9.25,74042.8,-2.17,-27.19,-25.49,0,*53
1508904428.79,32428,9.25,74032.3,-2.17,-27.51,-25.81,0,*54
1508904430.05,32429,9.25,74022.8,-2.17,-27.55,-25.81,0,*51
1508904431.26,32430,9.25,74020.5,-2.15,-27.55,-25.87,0,*5D
1508904432.49,32431,9.25,74018.8,-2.15,-27.51,-25.81,0,*5E
1508904433.7,32432,9.25,74030.8,-2.15,-27.03,-25.19,0,*5B
1508904434.92,32433,9.25,74042.5,-2.15,-27.13,-25.49,0,*5E
1508904436.15,32434,9.25,74030.5,-2.15,-27.35,-25.65,0,*53
1508904437.39,32435,9.25,74034.3,-2.15,-27.13,-25.55,0,*55
1508904438.66,32436,9.25,74050.5,-2.15,-27.23,-25.55,0,*55
1508904439.92,32437,9.25,74038.3,-2.15,-27.23,-25.55,0,*54
1508904441.13,32438,9.25,74036.0,-2.15,-26.87,-25.19,0,*5C
1508904442.34,32439,9.25,74036.3,-2.15,-27.03,-25.35,0,*5E
1508904443.58,32440,9.25,74034.0,-2.15,-26.71,-25.09,0,*5B
1508904444.86,32441,9.25,74030.3,-2.13,-26.97,-25.45,0,*5C
1508904446.08,32442,9.25,74040.8,-2.15,-27.13,-25.49,0,*58
1508904447.29,32443,9.25,74040.5,-2.15,-27.13,-25.49,0,*59
1508904448.52,32444,9.25,74034.5,-2.13,-26.49,-24.97,0,*54
1508904449.76,32445,9.25,74034.3,-2.15,-26.65,-25.03,0,*51
1508904451.02,32446,9.25,74028.8,-2.13,-26.97,-25.19,0,*52
1508904452.29,32447,9.25,74030.3,-2.13,-26.97,-25.35,0,*5D
1508904453.5,32448,9.25,74028.0,-2.15,-27.03,-25.39,0,*54
1508904454.72,32449,9.25,74030.0,-2.15,-27.03,-25.49,0,*52
1508904455.96,32450,9.25,74030.5,-2.15,-26.97,-25.35,0,*5D
1508904457.2,32451,9.25,74034.0,-2.15,-26.97,-25.35,0,*5C
1508904458.44,32452,9.25,74032.0,-2.15,-26.97,-25.35,0,*5F
1508904459.65,32453,9.25,74040.5,-2.15,-27.03,-25.39,0,*5E
1508904460.89,32454,9.25,74036.5,-2.15,-26.97,-25.35,0,*59
1508904462.13,32455,9.25,74034.8,-2.15,-26.97,-25.35,0,*58
1508904463.34,32456,9.25,74034.8,-2.15,-27.03,-25.35,0,*57
1508904464.55,32457,9.25,74038.5,-2.15,-27.03,-25.35,0,*56
1508904465.76,32458,9.25,74042.8,-2.15,-26.87,-25.35,0,*54
1508904466.98,32459,9.25,74040.5,-2.15,-27.03,-25.49,0,*53
1508904468.26,32460,9.25,74038.8,-2.13,-26.93,-25.29,0,*51
1508904469.5,32461,9.25,74044.5,-2.15,-26.97,-25.23,0,*58
1508904470.74,32462,9.25,74044.5,-2.15,-26.81,-25.23,0,*5C
1508904471.95,32463,9.25,74046.8,-2.15,-26.87,-25.19,0,*52
1508904473.18,32464,9.25,74048.3,-2.15,-26.39,-24.87,0,*56
1508904474.41,32465,9.25,74044.0,-2.15,-26.55,-24.97,0,*5C
1508904475.65,32466,9.25,74044.5,-2.15,-26.65,-25.03,0,*50
1508904476.88,32467,9.25,74048.3,-2.13,-26.61,-24.97,0,*5F
1508904478.11,32468,9.25,74048.0,-2.13,-26.61,-24.97,0,*50
1508904479.37,32469,9.25,74044.0,-2.13,-26.13,-24.51,0,*5E
1508904480.62,32470,9.25,74044.3,-2.13,-26.45,-24.83,0,*5A
1508904481.86,32471,9.25,74042.3,-2.13,-26.65,-25.13,0,*51
1508904483.07,32472,9.25,74034.5,-2.15,-26.87,-25.23,0,*5B
1508904484.33,32473,9.25,74028.3,-2.13,-26.77,-25.19,0,*5A
1508904485.59,32474,9.25,74028.8,-2.13,-26.65,-25.03,0,*55
1508904486.82,32475,9.25,74044.3,-2.15,-26.55,-24.97,0,*5D
1508904488.04,32476,9.25,74044.5,-2.15,-26.65,-25.09,0,*5B
1508904489.25,32477,9.25,74036.5,-2.15,-26.45,-24.97,0,*5E
1508904490.51,32478,9.25,74040.8,-2.13,-26.17,-24.61,0,*59
1508904491.76,32479,9.25,74036.8,-2.13,-26.45,-24.83,0,*53
1508904492.99,32480,9.25,74036.8,-2.13,-26.45,-24.97,0,*50
1508904494.2,32481,9.25,74032.8,-2.15,-26.49,-24.97,0,*5B
1508904495.46,32482,9.25,74040.8,-2.13,-26.13,-24.61,0,*58
1508904496.71,32483,9.25,74044.0,-2.11,-26.29,-24.77,0,*55
1508904497.97,32484,9.25,74052.0,-2.13,-26.61,-25.03,0,*5E
1508904499.23,32485,9.25,74044.8,-2.13,-26.13,-24.61,0,*5F
1508904500.48,32486,9.25,74042.3,-2.13,-26.33,-24.93,0,*53
1508904501.76,32487,9.25,74040.3,-2.13,-26.17,-24.67,0,*5F
1508904503.02,32488,9.25,74038.0,-2.13,-26.29,-24.77,0,*5C
1508904504.25,32489,9.25,74040.5,-2.13,-26.45,-24.97,0,*59
1508904505.48,32490,9.25,74042.3,-2.13,-26.49,-25.13,0,*50
1508904506.74,32491,9.25,74050.5,-2.13,-26.49,-25.03,0,*50